Location: Drocourt
(49.0571°N, 1.7669°E)
Time: 14:44:33
(UTC+00:00)

Vanguard 1 Rocket - Pass Details

Date: 15 April 2024
Orbit: 651 x 4220 km, 34.3° (Epoch: 19 May)

Event Time Altitude Azimuth Distance (km) Brightness Sun altitude
Rises 20:02:08 0° 228° (SW) 3,513 10.6 -12.2°
Reaches altitude 10° 20:04:36 10° 215° (SW) 2,839 10.0 -12.6°
Maximum altitude 20:10:22 28° 158° (SSE) 2,437 9.1 -13.4°
Enters shadow 20:16:34 17° 115° (ESE) 3,815 9.9 -14.2°
